sat.trackr.live / text

‹ back to catalog

ABS-3A

NORAD 40424 · 2015-010A

PAYLOAD ACTIVE UNKNOWN

§ Identity

Operator
Country
ABS
Launch date
2015-03-02
Launch site
AFETR
Launch vehicle
Mass (kg)
RCS (m²)
6.02

Purposes: comms

External: N2YO · Heavens-Above · Gunter

§ Orbital elements

Epoch: 2026-09-13T01:51:51.257376Z

Period
1,436.12 min
Inclination
0.0101°
Eccentricity
0.0001925
Mean motion
1.00269878 rev/d
Perigee alt
35,779.0 km
Apogee alt
35,795.2 km
Semi-major
42,165.3 km
B*
0.0000e+0
RAAN
156.4501°
Arg perigee
319.3603°
Mean anomaly
261.2510°
Rev number
4,225

§ Raw data

ABS-3A1 40424U 15010A   26256.07767659 -.00000039  00000+0  00000+0 0  99902 40424   0.0101 156.4501 0001925 319.3603 261.2510  1.00269878 42253

JSON: /api/v1/satellites/40424 · /tle

For live sub-satellite position, see the globe view (requires WebGL).

§ Visibility from observer

Set your observer location to see the next 7 days of passes ≥ 10°. The values pass through the URL so the page stays shareable.

No JS? Fill the form by hand. The geolocation button needs JavaScript.